sat.trackr.live / text

‹ back to catalog

STARLINK-31686

NORAD 59579 · 2024-076R

PAYLOAD ACTIVE UNKNOWN

§ Identity

Operator
Country
US
Launch date
2024-04-23
Launch site
AFETR
Launch vehicle
Mass (kg)
RCS (m²)

Purposes: comms

External: N2YO · Heavens-Above · Gunter

§ Orbital elements

Epoch: 2026-09-20T21:59:40.483392Z

Period
94.27 min
Inclination
43.0004°
Eccentricity
0.0000657
Mean motion
15.27595312 rev/d
Perigee alt
482.6 km
Apogee alt
483.5 km
Semi-major
6,861.1 km
B*
8.8793e-5
RAAN
346.1506°
Arg perigee
330.0233°
Mean anomaly
30.0581°
Rev number
13,636

§ Raw data

STARLINK-316861 59579U 24076R   26263.91644078  .00002183  00000+0  88793-4 0  99942 59579  43.0004 346.1506 0000657 330.0233  30.0581 15.27595312136361

JSON: /api/v1/satellites/59579 · /tle

For live sub-satellite position, see the globe view (requires WebGL).

§ Visibility from observer

Set your observer location to see the next 7 days of passes ≥ 10°. The values pass through the URL so the page stays shareable.

No JS? Fill the form by hand. The geolocation button needs JavaScript.